This is the latest recevied weather packets stored in our database for station/object KE5SXT-2. If no packets are shown the sender has not sent any weather packets the latest 10 day(s).
| Time | Temp. | Humidity | Pressure | Rain* | Wind** | Luminosity | Snow |
|---|---|---|---|---|---|---|---|
| 1777897222 | 16.11° C | 70% | 1011.9 hPa | 0 mm | - | - | - |
| 1777896622 | 16.11° C | 70% | 1012 hPa | 0 mm | - | - | - |
| 1777890622 | 16.67° C | 67% | 1012.3 hPa | 0 mm | - | - | - |
| 1777887621 | 16.67° C | 68% | 1012.4 hPa | 0 mm | - | - | - |
| 1777886421 | 16.67° C | 67% | 1012.5 hPa | 0 mm | - | - | - |
| 1777885821 | 16.67° C | 67% | 1012.5 hPa | 0 mm | - | - | - |
| 1777877421 | 18.89° C | 58% | 1014.5 hPa | 0 mm | - | - | - |
| 1777871421 | 20.56° C | 54% | 1014.8 hPa | 0 mm | - | - | - |
| 1777868447 | 21.11° C | 51% | 1015.2 hPa | 0 mm | - | - | - |
| 1777864821 | 21.67° C | 47% | 1015 hPa | 0 mm | - | - | - |
| 1777862421 | 22.22° C | 45% | 1014.9 hPa | 0 mm | - | - | - |
| 1777861822 | 22.78° C | 44% | 1015.2 hPa | 0 mm | - | - | - |
| 1777860022 | 23.33° C | 42% | 1014.8 hPa | 0 mm | - | - | - |
| 1777855821 | 25.56° C | 36% | 1014.4 hPa | 0 mm | - | - | - |
| 1777852247 | 26.11° C | 34% | 1014.8 hPa | 0 mm | - | - | - |
| 1777850421 | 26.11° C | 33% | 1014.9 hPa | 0 mm | - | - | - |
| 1777848622 | 26.11° C | 34% | 1015.5 hPa | 0 mm | - | - | - |
| 1777844421 | 25.56° C | 34% | 1016.5 hPa | 0 mm | - | - | - |
| 1777842621 | 25.56° C | 34% | 1017.3 hPa | 0 mm | - | - | - |
| 1777842021 | 25° C | 34% | 1017.5 hPa | 0 mm | - | - | - |
| 1777836620 | 24.44° C | 37% | 1019.3 hPa | 0 mm | - | - | - |
| 1777836021 | 23.89° C | 37% | 1019.4 hPa | 0 mm | - | - | - |
| 1777833020 | 22.78° C | 39% | 1020.4 hPa | 0 mm | - | - | - |
| 1777832420 | 23.33° C | 40% | 1020.6 hPa | 0 mm | - | - | - |
| 1777831846 | 22.78° C | 40% | 1020.8 hPa | 0 mm | - | - | - |
* Rain latest hour (hover to see other rain measurements)
** Current wind speed in m/s (hover to see current wind gust speed)